YZ-1 R/B, 58656

Orbit data source: Space-Track

YZ-1 R/B, 58656 is space debris originally from a launch on Tue, 26 Dec 2023 UTC launched from the Xichang Space Center, China (XSC). Debris objects in space refer to the collection of defunct objects orbiting the Earth. Examples of debris include non-operational satellites, rocket bodies, and fragments generated from explosions, collisions, or faulty payload assembly.

Loading next visibility...
Identifier
58656, 2023-207C
Orbit
Active
Country
Flag of CNCN / PRC
Related business
Manufacturer
CALT
Mission
Spacecraft
Bus & Motor
YZ-1, Unknown motor
Mass
~2,075 kg wet, ~2,075 kg dry
Launch date (UTC)
2023-12-26 (2 years ago)
Launch vehicle
Unknown
Launch site
Xichang Space Center, China (XSC)
Object type
Payload
Rocket body
Debris
Shape & HBR
Double Cone, 2.0 m
Radar Cross Section
5.890 m², Large (>1 m²)

Expand to show TLE details & history
Last TLE update: 3 days ago

TLE from 3 days ago
0 YZ-1 R/B
1 58656U 23207C   26170.74864687 -.00000063  00000-0  00000-0 0  9990
2 58656  55.8368  64.4995 0026555 346.7881  13.1809  1.79266021 16254
Epoch: 2026-06-19T17:58Z
TLE epoch observation values (Epoch: 2026-06-19T17:58:03.089Z)
Latitude
-0.00004°
Longitude
-112.96968°
Altitude
22,172.557 km
Speed
3.741 km/s
True Right ascension
04h 18m 03s
True Declination
0° 00' 00"
Sunlit
Object was in daylight at epoch
Visualization orbit readout
Latitude
Unknown
Longitude
Unknown
Altitude
Unknown
Speed
Unknown
Apparent Right ascension
Unknown
Apparent Declination
Unknown
Sunlit
N/A
Visualization observer readout
Local Sidereal Time
21:23:30
Azimuth
Unknown
Elevation
Unknown
Doppler factor
Unknown
Orbital elements
Apogee altitude
22,322.26 km
Perigee altitude
22,170.236 km
Semi-major axis
28,624.385 km
Eccentricity
0.00266
Inclination
55.8368°
RAAN
64.4995°
Arg. of periapsis
346.7881°
True anomaly
13.25051°
Mean anomaly
13.1809°
Eccentric anomaly
13.21568°
Mean motion
0.44817 °/min
Orbital period
803.27 mins
BSTAR
0
Loading maneuver chart data...
Computing Atmospheric mass density...
Loading historical data...
Loading historical data...
Loading historical data...
Loading historical data...
Loading historical data...
Loading historical data...
Loading historical data...
Other satellites on launch #207 in the year 2023 (2023-12-26 UTC)

Documentation

Showing up to 5 results
|